Regional Weather Roundup
Issued by NWS

Home | Current Version | Previous Version | Graphics & Text | Print | Product List | Glossary On
Versions: 1 2 3 4 5 6 7 8 9 10 11 12 13 14 15 16 17 18 19 20 21 22 23 24 25 26 27 28 29 30 31 32 33 34 35 36 37 38 39 40 41 42 43 44 45 46 47 48 49 50
000
ASUS44 KMEG 251810
RWRTN
TENNESSEE HOURLY STATE WEATHER ROUNDUP
NATIONAL WEATHER SERVICE MEMPHIS TN
1200 PM CST TUE NOV 25 2014

TNZ002-004-019-021-049-052-054-088>092-251900-
WEST TENNESSEE

CITY           SKY/WX    TMP DP  RH WIND       PRES   REMARKS
MEMPHIS INTL   PTSUNNY   49  23  36 W7        30.22F
NWS MEMPHIS      N/A     49 N/A N/A MISG        N/A
JACKSON        MOSUNNY   47  28  47 NW10      30.19F
DYERSBURG      SUNNY     45  18  33 NW8       30.22F
UNION CITY     SUNNY     39  27  60 W7        30.19F WCI  34
PARIS          SUNNY     43  23  45 NW7G16    30.18F
HUNTINGDON     MOSUNNY   43  22  43 NW7       30.18F
LEXINGTON      SUNNY    N/A N/A N/A MISG      30.17F
SAVANNAH       SUNNY     45  27  49 NW8       30.17F
$$

TNZ008-025-027-028-033-062-065-066-251900-
NORTH MIDDLE TENNESSEE

CITY           SKY/WX    TMP DP  RH WIND       PRES   REMARKS
NASHVILLE      PTSUNNY   51  28  41 N8        30.15F
CLARKSVILLE    SUNNY     45  25  45 W8        30.17F
SMYRNA         SUNNY     49  30  48 CALM      30.16F
COOKEVILLE     SUNNY     52  34  50 W6        30.11F
CROSSVILLE     SUNNY     53  24  32 W10G18    30.09F
$$

TNZ061-075-076-078-094-096-097-251900-
SOUTH MIDDLE TENNESSEE

CITY           SKY/WX    TMP DP  RH WIND       PRES   REMARKS
FAYETTEVILLE   SUNNY     52  28  40 MISG      30.12F
TULLAHOMA      SUNNY     50  30  46 N5        30.13F
WINCHESTER     SUNNY     52  30  43 VRB6      30.12F
MCMINNVILLE    SUNNY     52  30  43 W5        30.12F
COLUMBIA       SUNNY     48  30  49 N3        30.12F
SHELBYVILLE    SUNNY     52  36  54 NW16      30.14F
$$

TNZ017-018-042-046-047-251900-
NORTHEAST TENNESSEE

CITY           SKY/WX    TMP DP  RH WIND       PRES   REMARKS
TRI CITIES     MOSUNNY   52  29  41 S6        30.10F
ELIZABETHTON   CLEAR     50  28  43 VRB5      30.09F
$$

TNZ012-013-036-069-073-074-251900-
CENTRAL EAST TENNESSEE

CITY           SKY/WX    TMP DP  RH WIND       PRES   REMARKS
KNOXVILLE      MOSUNNY   56  29  35 N6        30.08F
OAK RIDGE      SUNNY     56  28  34 CALM      30.10F
GATLINBURG     CLEAR     55  21  26 CALM      30.08F
MORRISTOWN     CLEAR     54  30  40 W3        30.09F
$$

TNZ083-085-099-251900-
SOUTHEAST TENNESSEE

CITY           SKY/WX    TMP DP  RH WIND       PRES   REMARKS
CHATTANOOGA    MOSUNNY   57  29  34 VRB3      30.10F
$$

SKY/WX REPORTED AS FAIR MEANS FEW OR NO CLOUDS BELOW
12 THOUSAND FEET.




USA.gov is the U.S. government's official web portal to all federal, state and local government web resources and services.